This demonstration page uses our WeatherBlox Daily Observations layout. Learn more.

Left ArrowRight Arrow

39.95238, -75.16362

Hourly Observations for November 26, 2022

Temp ( °F °C ) Dew Point ( °F °C ) Humidity (%) Winds ( mph kmh ) Pressure ( in mb ) Visibility ( mi km ) Precip ( " mm )
12:54 am 00:54 Mostly Cloudy 46 7.8 28 -2.2 49 49 NW 10 17 30.01 1016 10 16 0.00 0.00
1:54 am 01:54 Partly Cloudy 46 7.8 26 -3.3 45 45 NW 20 31 30.04 1017 10 16 0.00 0.00
2:54 am 02:54 Mostly Clear 45 7.2 25 -3.9 45 45 NW 12 19 30.06 1018 10 16 0.00 0.00
3:54 am 03:54 Mostly Clear 43 6.1 26 -3.3 51 51 W 8 13 30.07 1018 10 16 0.00 0.00
4:54 am 04:54 Clear 39 3.9 27 -2.8 62 62 W 7 11 30.07 1018 10 16 0.00 0.00
5:54 am 05:54 Clear 40 4.4 27 -2.8 59 59 W 8 13 30.08 1019 10 16 0.00 0.00
6:54 am 06:54 Clear 38 3.3 28 -2.2 67 67 WSW 7 11 30.09 1019 10 16 0.00 0.00
7:54 am 07:54 Sunny 41 5 29 -1.7 62 62 W 9 15 30.12 1020 10 16 0.00 0.00
8:54 am 08:54 Sunny 45 7.2 30 -1.1 55 55 WNW 8 13 30.11 1020 10 16 0.00 0.00
9:54 am 09:54 Sunny 49 9.4 30 -1.1 48 48 WNW 12 19 30.11 1020 10 16 0.00 0.00
10:54 am 10:54 Sunny 51 10.6 31 -0.6 46 46 WNW 10 17 30.10 1019 10 16 0.00 0.00
11:54 am 11:54 Sunny 53 11.7 31 -0.6 43 43 WNW 10 17 30.08 1019 10 16 0.00 0.00
12:54 pm 12:54 Sunny 55 12.8 31 -0.6 40 40 WNW 10 17 30.06 1018 10 16 0.00 0.00
1:54 pm 13:54 Sunny 57 13.9 30 -1.1 35 35 WNW 7 11 30.04 1017 10 16 0.00 0.00
2:54 pm 14:54 Sunny 57 13.9 30 -1.1 35 35 W 9 15 30.04 1017 10 16 0.00 0.00
3:54 pm 15:54 Sunny 57 13.9 32 0 38 38 WSW 12 19 30.04 1017 10 16 0.00 0.00
4:54 pm 16:54 Mostly Clear 53 11.7 34 1.1 48 48 WSW 10 17 30.04 1017 10 16 0.00 0.00
5:54 pm 17:54 Clear 50 10 35 1.7 56 56 W 10 17 30.05 1018 10 16 0.00 0.00
6:54 pm 18:54 Partly Cloudy 51 10.6 32 0 48 48 WSW 8 13 30.07 1018 10 16 0.00 0.00
7:54 pm 19:54 Mostly Cloudy 47 8.3 34 1.1 60 60 SSW 5 7 30.05 1018 10 16 0.00 0.00
8:54 pm 20:54 Clear 46 7.8 33 0.6 60 60 SW 6 9 30.05 1018 10 16 0.00 0.00
9:54 pm 21:54 Partly Cloudy 47 8.3 33 0.6 58 58 SW 6 9 30.03 1017 10 16 0.00 0.00
10:54 pm 22:54 Partly Cloudy 44 6.7 33 0.6 65 65 SSW 3 6 30.02 1017 10 16 0.00 0.00
11:54 pm 23:54 Mostly Cloudy 42 5.6 33 0.6 70 70 SW 3 6 30.01 1016 10 16 0.00 0.00

Powered by AerisWeather